World > North America > United States > Illinois

Hourly Payson, IL Regional Weather

Feedback E-mail the Weather

Quick WX

Payson, IL Weather Maps

°F °C°F °C
Payson Weather Map
UTC Time: 6/26/2022, 09:04
Your Time:

Payson, IL Regional Weather

Expires:202206261000;;210939
ASUS43 KLOT 260903
RWRIL 

ILLINOIS REGIONAL WEATHER ROUNDUP
NATIONAL WEATHER SERVICE CHICAGO/ROMEOVILLE IL
400 AM CDT SUN JUN 26 2022

NOTE: "FAIR" INDICATES FEW OR NO CLOUDS BELOW 12,000 FEET WITH NO
SIGNIFICANT WEATHER AND/OR OBSTRUCTIONS TO VISIBILITY.

* THESE STATIONS ARE NOT UNDER NWS QUALITY CONTROL. THEY ALSO MAY NOT
  REPORT WEATHER SUCH AS PRECIPITATION OR FOG.


ILZ025>027-034>036-040-047-049-050-058-095>099-261000-
WEST-CENTRAL ILLINOIS
  
CITY           SKY/WX    TMP DP  RH WIND       PRES   REMARKS
QUINCY         CLOUDY    73  70  90 NW8       30.05R                  
GALESBURG*     MOCLDY    69  69 100 NW6       30.05R                  
MACOMB*        CLOUDY    71  67  89 NW8       30.06R                  
JACKSONVILLE*  PTCLDY    72  72 100 N7        30.03R                  
PITTSFIELD*    MOCLDY    72  72 100 CALM      30.05S                  
$$


SKY/WX - Weather  TMP - Temperature  DP - Dew Point  RH - Humidity
WIND - Wind Direction/Speed PRES - Barometric Pressure VSB - Visibility
WCI - Wind Chill Index E13G22 Wind - East Wind 13 mph/Gusts of 22 mph

Trending Headlines

Payson Radar Loop



Payson Quick Facts


National Two Day Weather Forecast


E-mail the Payson Weather Forecast

Voice your opinion or tell us about page issues...